No particular awareness of the weather is required.    There are no Weather-warnings




My webcam more information My webcam


Meteosat more information Meteosat


Radar de pluja more information rain snow radar


Visita la nostra xarxa de llocs de meteo:

Template documentation
and downloads

And another site



Select another period ( hide this area )

Unitats Periode Custom range Directly to
Mètric Imperial Tant
Diari Setmana Mensual Anual
use both date-selectors for a custom range
previous Dia
With this date

WeatherUnderground graphs for this period ( click here )


Warning: Division by zero in /var/www/vhosts/5/103384/webspace/httpdocs/santgenismeteo.org/weather28/wu/WU-History4.php on line 835
Diari Resum Dimarts 13 Novembre 2018
Temps Temp. ( °C ) Dew pt. ( °C ) Vent ( km/h ) des Rafegues ( km/h ) Pression baro ( hPa ) Humid.( % ) Rainrate ( cm ) Solar ( W/m2 )
Maxima16,9 14,9 8,7 Est ( 96/162 ) 11,6 1021,2 88 - 0
Media16,6 13,3 1,8 calma #39/92 4,1 1019,7 81 - 0 #0/92
Minima16,3 12,3 -   1,4 1018,5 76 -  
Diari Tabular details for Dimarts 13 Novembre 2018
Temps Temp. ( °C ) Dew pt. ( °C ) Vent ( km/h ) des Rafegues ( km/h ) Pression baro ( hPa ) Humid.( % ) Rainrate ( cm ) Solar ( W/m2 )
00:01 16,9 14,9   calma 1,4 1019,5 88 - -
00:06 16,9 14,9 4,3 Est 4,3 1019,5 88 - -
00:11 16,9 14,9 4,0 WNW 4,0 1019,5 88 - -
00:16 16,9 14,9   calma 2,6 1019,5 88 - -
00:21 16,9 14,9   calma 2,1 1019,5 88 - -
00:26 16,8 14,8   calma 1,8 1019,5 88 - -
00:31 16,8 14,8   calma 3,5 1019,5 88 - -
00:36 16,8 14,6   calma 2,6 1019,5 87 - -
00:41 16,7 14,5   calma 4,0 1018,5 87 - -
00:46 16,7 14,5   calma 1,4 1018,5 87 - -
00:51 16,7 14,5   calma 2,6 1018,5 87 - -
00:56 16,7 14,2 2,6 Est 5,0 1019,5 85 - -
01:01 16,8 14,3   calma 2,1 1019,5 85 - -
01:06 16,8 14,3   calma 3,2 1019,5 85 - -
01:11 16,8 14,1 5,8 West 5,8 1018,5 84 - -
01:16 16,8 14,1   calma 3,2 1018,5 84 - -
01:21 16,8 14,1 4,3 South 4,3 1018,5 84 - -
01:26 16,9 14,0 1,4 West 1,4 1018,5 83 - -
01:31 16,9 14,0   calma 4,7 1018,5 83 - -
01:36 16,9 14,0 2,1 WSW 2,1 1018,5 83 - -
01:41 16,9 14,0   calma 3,2 1018,5 83 - -
01:46 16,9 13,8   calma 3,2 1018,5 82 - -
01:51 16,9 13,8 1,4 West 1,4 1018,5 82 - -
01:56 16,9 13,8 1,4 WNW 4,7 1018,5 82 - -
02:01 16,9 13,8 1,8 ENE 2,6 1018,5 82 - -
02:06 16,9 13,8   calma 1,8 1018,5 82 - -
02:11 16,8 13,7 2,6 WSW 4,0 1019,5 82 - -
02:16 16,8 13,7   calma 2,1 1019,5 82 - -
02:21 16,8 13,7   calma 1,4 1019,5 82 - -
02:26 16,8 13,7   calma 4,7 1019,5 82 - -
02:31 16,8 13,7 5,5 West 5,5 1019,5 82 - -
02:36 16,8 13,5 1,8 West 1,8 1019,5 81 - -
02:41 16,8 13,5 1,4 WSW 5,5 1019,5 81 - -
02:46 16,8 13,5 1,4 Est 4,7 1019,5 81 - -
02:51 16,8 13,5 1,4 Est 4,3 1019,5 81 - -
02:56 16,8 13,5   calma 2,1 1019,5 81 - -
03:01 16,8 13,5 1,4 NNW 3,5 1019,5 81 - -
03:06 16,8 13,5   calma 2,6 1019,5 81 - -
03:11 16,8 13,3 4,0 SE 4,0 1018,5 80 - -
03:16 16,8 13,5 4,0 Est 4,0 1018,5 81 - -
03:21 16,8 13,3 1,8 Est 4,0 1018,5 80 - -
03:26 16,8 13,3 1,4 West 2,6 1019,5 80 - -
03:31 16,7 13,2 2,6 SSE 2,6 1019,5 80 - -
03:36 16,7 13,2 1,8 SW 1,8 1019,5 80 - -
03:41 16,6 13,1   calma 3,2 1019,5 80 - -
03:46 16,6 13,1 4,0 Est 4,7 1019,5 80 - -
03:51 16,6 12,9 5,8 ENE 5,8 1019,5 79 - -
03:56 16,5 12,8 1,8 Est 5,8 1019,5 79 - -
04:01 16,5 12,8   calma 3,2 1019,5 79 - -
04:06 16,5 12,8   calma 1,8 1019,5 79 - -
04:11 16,5 12,8   calma 2,1 1019,5 79 - -
04:16 16,5 12,8   calma 3,2 1019,5 79 - -
04:21 16,5 12,7 2,1 Est 3,5 1019,5 78 - -
04:26 16,5 12,8   calma 1,8 1019,5 79 - -
04:31 16,5 12,8 2,1 West 2,1 1019,5 79 - -
04:36 16,5 12,7 1,4 Est 4,7 1019,5 78 - -
04:41 16,5 12,7 1,8 NE 4,0 1019,5 78 - -
04:46 16,4 12,6   calma 1,8 1019,5 78 - -
04:51 16,4 12,7   calma 4,0 1019,5 79 - -
04:56 16,4 12,7 6,9 Est 6,9 1019,5 79 - -
05:01 16,3 12,7 4,0 Est 5,5 1019,5 79 - -
05:06 16,3 12,7   calma 2,6 1019,5 79 - -
05:11 16,3 12,7 1,4 Est 6,1 1020,5 79 - -
05:16 16,3 12,7 1,4 Est 1,4 1020,5 79 - -
05:21 16,4 12,7   calma 5,8 1020,5 79 - -
05:26 16,4 12,7 3,5 ESE 6,9 1020,5 79 - -
05:31 16,4 12,7   calma 2,1 1020,5 79 - -
05:36 16,4 12,7   calma 5,8 1020,5 79 - -
05:41 16,3 12,7   calma 3,5 1020,5 79 - -
05:46 16,3 12,7 5,5 Est 5,5 1020,5 79 - -
05:51 16,3 12,7 6,1 Est 6,1 1020,5 79 - -
05:56 16,3 12,7 5,5 West 5,5 1020,5 79 - -
06:01 16,3 12,7   calma 4,7 1020,5 79 - -
06:06 16,3 12,8 2,1 Est 5,0 1020,5 80 - -
06:11 16,3 12,8 2,1 Est 6,9 1021,2 80 - -
06:16 16,3 12,8   calma 4,7 1021,2 80 - -
06:21 16,3 12,8 2,6 Est 4,7 1021,2 80 - -
06:26 16,3 12,8   calma 2,6 1020,5 80 - -
06:31 16,3 12,8 1,4 Est 1,8 1020,5 80 - -
06:36 16,3 12,8   calma 6,1 1020,5 80 - -
06:41 16,3 12,8   calma 3,5 1021,2 80 - -
06:46 16,3 12,8 1,8 Est 5,8 1021,2 80 - -
06:51 16,3 12,8 2,6 Est 5,8 1021,2 80 - -
06:56 16,3 12,8 3,2 Est 5,0 1021,2 80 - -
07:01 16,3 12,8 6,9 Est 11,6 1021,2 80 - -
07:06 16,3 12,7 1,4 NW 5,5 1021,2 79 - -
07:11 16,3 12,7 1,8 Est 6,1 1021,2 79 - -
07:16 16,4 12,6 3,2 Est 9,7 1021,2 78 - -
07:21 16,4 12,6 7,6 Est 7,6 1021,2 78 - -
07:26 16,5 12,7 1,8 ENE 5,0 1021,2 78 - -
07:31 16,5 12,5 1,4 Est 7,9 1021,2 77 - -
07:36 16,5 12,3 8,7 Est 8,7 1021,2 76 - -
Diari Resum Dimarts 13 Novembre 2018
Temps Temp. ( °C ) Dew pt. ( °C ) Vent ( km/h ) des Rafegues ( km/h ) Pression baro ( hPa ) Humid.( % ) Rainrate ( cm ) Solar ( W/m2 )
Maxima16,9 14,9 8,7 Est ( 96/162 ) 11,6 1021,2 88 - 0
Media16,6 13,3 1,8 calma #39/92 4,1 1019,7 81 - 0 #0/92
Minima16,3 12,3 -   1,4 1018,5 76 -  
Diari Tabular details for Dimarts 13 Novembre 2018
Temps Temp. ( °C ) Dew pt. ( °C ) Vent ( km/h ) des Rafegues ( km/h ) Pression baro ( hPa ) Humid.( % ) Rainrate ( cm ) Solar ( W/m2 )
00:01 16,9 14,9   calma 1,4 1019,5 88 - -
00:06 16,9 14,9 4,3 Est 4,3 1019,5 88 - -
00:11 16,9 14,9 4,0 WNW 4,0 1019,5 88 - -
00:16 16,9 14,9   calma 2,6 1019,5 88 - -
00:21 16,9 14,9   calma 2,1 1019,5 88 - -
00:26 16,8 14,8   calma 1,8 1019,5 88 - -
00:31 16,8 14,8   calma 3,5 1019,5 88 - -
00:36 16,8 14,6   calma 2,6 1019,5 87 - -
00:41 16,7 14,5   calma 4,0 1018,5 87 - -
00:46 16,7 14,5   calma 1,4 1018,5 87 - -
00:51 16,7 14,5   calma 2,6 1018,5 87 - -
00:56 16,7 14,2 2,6 Est 5,0 1019,5 85 - -
01:01 16,8 14,3   calma 2,1 1019,5 85 - -
01:06 16,8 14,3   calma 3,2 1019,5 85 - -
01:11 16,8 14,1 5,8 West 5,8 1018,5 84 - -
01:16 16,8 14,1   calma 3,2 1018,5 84 - -
01:21 16,8 14,1 4,3 South 4,3 1018,5 84 - -
01:26 16,9 14,0 1,4 West 1,4 1018,5 83 - -
01:31 16,9 14,0   calma 4,7 1018,5 83 - -
01:36 16,9 14,0 2,1 WSW 2,1 1018,5 83 - -
01:41 16,9 14,0   calma 3,2 1018,5 83 - -
01:46 16,9 13,8   calma 3,2 1018,5 82 - -
01:51 16,9 13,8 1,4 West 1,4 1018,5 82 - -
01:56 16,9 13,8 1,4 WNW 4,7 1018,5 82 - -
02:01 16,9 13,8 1,8 ENE 2,6 1018,5 82 - -
02:06 16,9 13,8   calma 1,8 1018,5 82 - -
02:11 16,8 13,7 2,6 WSW 4,0 1019,5 82 - -
02:16 16,8 13,7   calma 2,1 1019,5 82 - -
02:21 16,8 13,7   calma 1,4 1019,5 82 - -
02:26 16,8 13,7   calma 4,7 1019,5 82 - -
02:31 16,8 13,7 5,5 West 5,5 1019,5 82 - -
02:36 16,8 13,5 1,8 West 1,8 1019,5 81 - -
02:41 16,8 13,5 1,4 WSW 5,5 1019,5 81 - -
02:46 16,8 13,5 1,4 Est 4,7 1019,5 81 - -
02:51 16,8 13,5 1,4 Est 4,3 1019,5 81 - -
02:56 16,8 13,5   calma 2,1 1019,5 81 - -
03:01 16,8 13,5 1,4 NNW 3,5 1019,5 81 - -
03:06 16,8 13,5   calma 2,6 1019,5 81 - -
03:11 16,8 13,3 4,0 SE 4,0 1018,5 80 - -
03:16 16,8 13,5 4,0 Est 4,0 1018,5 81 - -
03:21 16,8 13,3 1,8 Est 4,0 1018,5 80 - -
03:26 16,8 13,3 1,4 West 2,6 1019,5 80 - -
03:31 16,7 13,2 2,6 SSE 2,6 1019,5 80 - -
03:36 16,7 13,2 1,8 SW 1,8 1019,5 80 - -
03:41 16,6 13,1   calma 3,2 1019,5 80 - -
03:46 16,6 13,1 4,0 Est 4,7 1019,5 80 - -
03:51 16,6 12,9 5,8 ENE 5,8 1019,5 79 - -
03:56 16,5 12,8 1,8 Est 5,8 1019,5 79 - -
04:01 16,5 12,8   calma 3,2 1019,5 79 - -
04:06 16,5 12,8   calma 1,8 1019,5 79 - -
04:11 16,5 12,8   calma 2,1 1019,5 79 - -
04:16 16,5 12,8   calma 3,2 1019,5 79 - -
04:21 16,5 12,7 2,1 Est 3,5 1019,5 78 - -
04:26 16,5 12,8   calma 1,8 1019,5 79 - -
04:31 16,5 12,8 2,1 West 2,1 1019,5 79 - -
04:36 16,5 12,7 1,4 Est 4,7 1019,5 78 - -
04:41 16,5 12,7 1,8 NE 4,0 1019,5 78 - -
04:46 16,4 12,6   calma 1,8 1019,5 78 - -
04:51 16,4 12,7   calma 4,0 1019,5 79 - -
04:56 16,4 12,7 6,9 Est 6,9 1019,5 79 - -
05:01 16,3 12,7 4,0 Est 5,5 1019,5 79 - -
05:06 16,3 12,7   calma 2,6 1019,5 79 - -
05:11 16,3 12,7 1,4 Est 6,1 1020,5 79 - -
05:16 16,3 12,7 1,4 Est 1,4 1020,5 79 - -
05:21 16,4 12,7   calma 5,8 1020,5 79 - -
05:26 16,4 12,7 3,5 ESE 6,9 1020,5 79 - -
05:31 16,4 12,7   calma 2,1 1020,5 79 - -
05:36 16,4 12,7   calma 5,8 1020,5 79 - -
05:41 16,3 12,7   calma 3,5 1020,5 79 - -
05:46 16,3 12,7 5,5 Est 5,5 1020,5 79 - -
05:51 16,3 12,7 6,1 Est 6,1 1020,5 79 - -
05:56 16,3 12,7 5,5 West 5,5 1020,5 79 - -
06:01 16,3 12,7   calma 4,7 1020,5 79 - -
06:06 16,3 12,8 2,1 Est 5,0 1020,5 80 - -
06:11 16,3 12,8 2,1 Est 6,9 1021,2 80 - -
06:16 16,3 12,8   calma 4,7 1021,2 80 - -
06:21 16,3 12,8 2,6 Est 4,7 1021,2 80 - -
06:26 16,3 12,8   calma 2,6 1020,5 80 - -
06:31 16,3 12,8 1,4 Est 1,8 1020,5 80 - -
06:36 16,3 12,8   calma 6,1 1020,5 80 - -
06:41 16,3 12,8   calma 3,5 1021,2 80 - -
06:46 16,3 12,8 1,8 Est 5,8 1021,2 80 - -
06:51 16,3 12,8 2,6 Est 5,8 1021,2 80 - -
06:56 16,3 12,8 3,2 Est 5,0 1021,2 80 - -
07:01 16,3 12,8 6,9 Est 11,6 1021,2 80 - -
07:06 16,3 12,7 1,4 NW 5,5 1021,2 79 - -
07:11 16,3 12,7 1,8 Est 6,1 1021,2 79 - -
07:16 16,4 12,6 3,2 Est 9,7 1021,2 78 - -
07:21 16,4 12,6 7,6 Est 7,6 1021,2 78 - -
07:26 16,5 12,7 1,8 ENE 5,0 1021,2 78 - -
07:31 16,5 12,5 1,4 Est 7,9 1021,2 77 - -
07:36 16,5 12,3 8,7 Est 8,7 1021,2 76 - -

Download your copy of this data-set  here

Our weather-data as stored at Weather Underground. Guio original per Jim McMurry. Adaptat per a la plantilla per Leuven-Template.eu

Trobareu la nostra informacio del temps tambe a:

European Weather Network

WeatherCloud

Weather Underground

Meteoclimatic

Equip utilitzat:

Weather-program
Weather Display

Weather-server
RaspberryPI 2

Proveidor

Weather Display

RaspberryPI 2